Time,TemperatureF,DewpointF,PressureIn,WindDirection,WindDirectionDegrees,WindSpeedMPH,WindSpeedGustMPH,Humidity,HourlyPrecipIn,Conditions,Clouds,dailyrainin,SoftwareType,DateUTC
2013-02-13 00:03:00,69.5,64.7,29.86,SSE,158,4.9,7.6,85,0.00,,,0.00,WUHU216HW,2013-02-12 21:03:00,
2013-02-13 00:08:00,69.5,64.7,29.87,ESE,113,5.6,7.2,85,0.00,,,0.00,WUHU216HW,2013-02-12 21:08:00,
2013-02-13 00:13:00,69.5,64.7,29.87,SE,135,4.9,7.2,85,0.00,,,0.00,WUHU216HW,2013-02-12 21:13:00,
2013-02-13 00:18:00,69.5,64.7,29.86,SSE,158,7.2,7.2,85,0.00,,,0.00,WUHU216HW,2013-02-12 21:18:00,
2013-02-13 00:23:00,69.5,64.7,29.86,ESE,113,5.1,7.2,85,0.00,,,0.00,WUHU216HW,2013-02-12 21:23:00,
2013-02-13 00:28:00,69.5,64.7,29.86,SE,135,5.4,7.2,85,0.00,,,0.00,WUHU216HW,2013-02-12 21:28:00,
2013-02-13 00:33:00,69.5,64.7,29.87,SE,135,3.8,5.6,85,0.00,,,0.00,WUHU216HW,2013-02-12 21:33:00,
2013-02-13 00:38:00,69.5,64.7,29.86,SSE,158,4.9,5.1,85,0.00,,,0.00,WUHU216HW,2013-02-12 21:38:00,
2013-02-13 00:43:00,69.3,64.5,29.86,SE,135,1.1,5.1,85,0.00,,,0.00,WUHU216HW,2013-02-12 21:43:00,
2013-02-13 00:48:00,69.3,64.5,29.87,SE,135,2.0,4.0,85,0.00,,,0.00,WUHU216HW,2013-02-12 21:48:00,
2013-02-13 00:53:00,69.1,64.4,29.86,SE,135,2.2,4.0,85,0.00,,,0.00,WUHU216HW,2013-02-12 21:53:00,
2013-02-13 00:58:00,69.1,64.4,29.86,SSE,158,2.9,4.0,85,0.00,,,0.00,WUHU216HW,2013-02-12 21:58:00,
2013-02-13 01:03:00,69.1,64.4,29.87,SE,135,2.0,4.0,85,0.00,,,0.00,WUHU216HW,2013-02-12 22:03:00,
2013-02-13 01:08:00,68.9,64.3,29.87,SSE,158,1.8,3.4,85,0.00,,,0.00,WUHU216HW,2013-02-12 22:08:00,
2013-02-13 01:13:00,68.9,64.3,29.87,SSE,158,0.7,3.4,85,0.00,,,0.00,WUHU216HW,2013-02-12 22:13:00,
2013-02-13 01:18:00,68.8,64.1,29.87,SSE,158,1.6,3.1,85,0.00,,,0.00,WUHU216HW,2013-02-12 22:18:00,
2013-02-13 01:23:00,68.8,64.1,29.87,SE,135,1.1,2.5,85,0.00,,,0.00,WUHU216HW,2013-02-12 22:23:00,
2013-02-13 01:28:00,68.8,64.1,29.87,South,180,1.1,2.5,85,0.00,,,0.00,WUHU216HW,2013-02-12 22:28:00,
2013-02-13 01:33:00,68.8,64.1,29.87,South,180,0.4,1.8,85,0.00,,,0.00,WUHU216HW,2013-02-12 22:33:00,
2013-02-13 01:38:00,68.6,63.9,29.87,SSW,203,0.4,1.8,85,0.00,,,0.00,WUHU216HW,2013-02-12 22:38:00,
2013-02-13 01:43:00,68.6,63.9,29.87,SSE,158,0.0,1.1,85,0.00,,,0.00,WUHU216HW,2013-02-12 22:43:00,
2013-02-13 01:48:00,68.4,63.7,29.87,SSW,203,1.1,1.1,85,0.00,,,0.00,WUHU216HW,2013-02-12 22:48:00,
2013-02-13 01:53:00,68.4,63.7,29.87,SSW,203,0.4,1.3,85,0.00,,,0.00,WUHU216HW,2013-02-12 22:53:00,
2013-02-13 01:58:00,68.4,63.7,29.87,WSW,248,1.1,1.8,85,0.00,,,0.00,WUHU216HW,2013-02-12 22:58:00,
2013-02-13 02:03:00,68.2,63.6,29.87,SSW,203,0.4,1.8,85,0.00,,,0.00,WUHU216HW,2013-02-12 23:03:00,
2013-02-13 02:08:00,68.2,63.6,29.87,WSW,248,0.0,1.8,85,0.00,,,0.00,WUHU216HW,2013-02-12 23:08:00,
2013-02-13 02:13:00,68.2,63.6,29.86,SSW,203,0.9,1.8,85,0.00,,,0.00,WUHU216HW,2013-02-12 23:13:00,
2013-02-13 02:18:00,68.2,63.6,29.87,SW,225,2.5,2.5,85,0.00,,,0.00,WUHU216HW,2013-02-12 23:18:00,
2013-02-13 02:23:00,68.0,63.4,29.87,SSW,203,1.3,2.9,85,0.00,,,0.00,WUHU216HW,2013-02-12 23:23:00,
2013-02-13 02:28:00,68.0,63.4,29.87,SSW,203,1.6,2.9,85,0.00,,,0.00,WUHU216HW,2013-02-12 23:28:00,
2013-02-13 02:33:00,68.0,63.4,29.87,SSW,203,1.6,2.5,85,0.00,,,0.00,WUHU216HW,2013-02-12 23:33:00,
2013-02-13 02:38:00,67.9,63.2,29.87,WSW,248,0.4,1.8,85,0.00,,,0.00,WUHU216HW,2013-02-12 23:38:00,
2013-02-13 02:43:00,67.9,63.2,29.87,WSW,248,0.0,2.0,85,0.00,,,0.00,WUHU216HW,2013-02-12 23:43:00,
2013-02-13 02:48:00,67.5,62.8,29.87,WSW,248,0.0,2.0,85,0.00,,,0.00,WUHU216HW,2013-02-12 23:48:00,
2013-02-13 02:53:00,67.3,62.6,29.87,WSW,248,0.4,1.1,85,0.00,,,0.00,WUHU216HW,2013-02-12 23:53:00,
2013-02-13 02:58:00,67.1,62.5,29.87,West,270,1.3,1.8,85,0.00,,,0.00,WUHU216HW,2013-02-12 23:58:00,
2013-02-13 03:03:00,67.0,62.3,29.87,West,270,0.9,1.8,85,0.00,,,0.00,WUHU216HW,2013-02-13 00:03:00,
2013-02-13 03:08:00,66.8,62.1,29.87,WNW,293,1.8,1.8,85,0.00,,,0.00,WUHU216HW,2013-02-13 00:08:00,
2013-02-13 03:13:00,66.6,61.9,29.87,WNW,293,1.3,1.8,85,0.00,,,0.00,WUHU216HW,2013-02-13 00:13:00,
2013-02-13 03:18:00,66.4,61.7,29.87,NW,315,0.2,1.8,85,0.00,,,0.00,WUHU216HW,2013-02-13 00:18:00,
2013-02-13 03:23:00,66.2,61.6,29.87,NW,315,0.7,1.6,85,0.00,,,0.00,WUHU216HW,2013-02-13 00:23:00,
2013-02-13 03:28:00,66.2,61.2,29.87,NW,315,0.7,1.1,84,0.00,,,0.00,WUHU216HW,2013-02-13 00:28:00,
2013-02-13 03:33:00,66.1,61.0,29.87,NW,315,1.1,1.3,84,0.00,,,0.00,WUHU216HW,2013-02-13 00:33:00,
2013-02-13 03:38:00,65.9,60.9,29.88,WNW,293,5.4,5.4,84,0.00,,,0.00,WUHU216HW,2013-02-13 00:38:00,
2013-02-13 03:43:00,65.3,60.8,29.88,WNW,293,4.7,8.5,85,0.00,,,0.00,WUHU216HW,2013-02-13 00:43:00,
2013-02-13 03:48:00,65.2,60.6,29.88,WNW,293,2.9,8.5,85,0.00,,,0.00,WUHU216HW,2013-02-13 00:48:00,
2013-02-13 03:53:00,65.2,60.6,29.88,WNW,293,5.4,6.0,85,0.00,,,0.00,WUHU216HW,2013-02-13 00:53:00,
2013-02-13 03:58:00,64.8,60.2,29.88,NW,315,2.9,6.3,85,0.00,,,0.00,WUHU216HW,2013-02-13 00:58:00,
2013-02-13 04:03:00,64.8,60.6,29.89,WNW,293,4.3,6.3,86,0.00,,,0.00,WUHU216HW,2013-02-13 01:03:00,
2013-02-13 04:08:00,64.6,60.0,29.89,WNW,293,4.9,6.0,85,0.00,,,0.00,WUHU216HW,2013-02-13 01:08:00,
2013-02-13 04:13:00,64.8,60.2,29.89,WNW,293,4.5,6.0,85,0.00,,,0.00,WUHU216HW,2013-02-13 01:13:00,
2013-02-13 04:18:00,64.8,60.2,29.89,NW,315,3.1,5.1,85,0.00,,,0.00,WUHU216HW,2013-02-13 01:18:00,
2013-02-13 04:24:00,64.8,60.2,29.89,NW,315,4.7,7.6,85,0.00,,,0.00,WUHU216HW,2013-02-13 01:24:00,
2013-02-13 04:28:00,64.6,60.0,29.89,NW,315,2.5,7.6,85,0.00,,,0.00,WUHU216HW,2013-02-13 01:28:00,
2013-02-13 04:34:00,64.6,60.0,29.89,WNW,293,6.0,7.6,85,0.00,,,0.00,WUHU216HW,2013-02-13 01:34:00,
2013-02-13 04:39:00,64.6,60.0,29.89,NW,315,2.7,7.6,85,0.00,,,0.00,WUHU216HW,2013-02-13 01:39:00,
2013-02-13 04:44:00,64.4,59.9,29.90,WNW,293,3.6,6.9,85,0.00,,,0.00,WUHU216HW,2013-02-13 01:44:00,
2013-02-13 04:49:00,64.4,59.9,29.90,WNW,293,3.4,6.9,85,0.00,,,0.00,WUHU216HW,2013-02-13 01:49:00,
2013-02-13 04:54:00,64.4,59.9,29.90,NW,315,3.6,7.6,85,0.00,,,0.00,WUHU216HW,2013-02-13 01:54:00,
2013-02-13 04:59:00,64.4,59.9,29.90,NNW,338,3.4,7.6,85,0.00,,,0.00,WUHU216HW,2013-02-13 01:59:00,
2013-02-13 05:04:00,64.4,59.9,29.90,NW,315,5.4,6.5,85,0.00,,,0.00,WUHU216HW,2013-02-13 02:04:00,
2013-02-13 05:09:00,64.4,59.9,29.91,WNW,293,6.3,6.5,85,0.00,,,0.00,WUHU216HW,2013-02-13 02:09:00,
2013-02-13 05:14:00,64.4,59.5,29.91,NNW,338,5.8,6.5,84,0.00,,,0.00,WUHU216HW,2013-02-13 02:14:00,
2013-02-13 05:19:00,64.4,59.5,29.91,NW,315,3.8,6.5,84,0.00,,,0.00,WUHU216HW,2013-02-13 02:19:00,
2013-02-13 05:24:00,64.4,59.5,29.91,West,270,3.6,5.6,84,0.00,,,0.00,WUHU216HW,2013-02-13 02:24:00,
2013-02-13 05:29:00,64.4,59.5,29.92,WNW,293,4.0,4.9,84,0.00,,,0.00,WUHU216HW,2013-02-13 02:29:00,
2013-02-13 05:34:00,64.4,59.5,29.92,NW,315,3.1,4.9,84,0.00,,,0.00,WUHU216HW,2013-02-13 02:34:00,
2013-02-13 05:39:00,64.4,59.5,29.92,WNW,293,2.2,4.9,84,0.00,,,0.00,WUHU216HW,2013-02-13 02:39:00,
2013-02-13 05:44:00,64.6,59.7,29.92,West,270,2.5,4.5,84,0.00,,,0.00,WUHU216HW,2013-02-13 02:44:00,
2013-02-13 05:49:00,64.6,59.7,29.93,NW,315,1.8,4.5,84,0.00,,,0.00,WUHU216HW,2013-02-13 02:49:00,
2013-02-13 05:54:00,64.6,59.7,29.93,WNW,293,2.0,3.8,84,0.00,,,0.00,WUHU216HW,2013-02-13 02:54:00,
2013-02-13 05:59:00,64.4,59.5,29.93,West,270,3.4,3.4,84,0.00,,,0.00,WUHU216HW,2013-02-13 02:59:00,
2013-02-13 06:04:00,64.4,59.5,29.93,West,270,4.0,4.0,84,0.00,,,0.00,WUHU216HW,2013-02-13 03:04:00,
2013-02-13 06:09:00,64.4,59.5,29.94,West,270,3.4,4.7,84,0.00,,,0.00,WUHU216HW,2013-02-13 03:09:00,
2013-02-13 06:14:00,64.3,59.3,29.94,West,270,4.5,4.7,84,0.00,,,0.00,WUHU216HW,2013-02-13 03:14:00,
2013-02-13 06:19:00,64.1,59.1,29.94,WNW,293,2.9,5.1,84,0.00,,,0.00,WUHU216HW,2013-02-13 03:19:00,
2013-02-13 06:24:00,64.1,59.1,29.94,WNW,293,4.0,5.1,84,0.00,,,0.00,WUHU216HW,2013-02-13 03:24:00,
2013-02-13 06:29:00,64.1,59.1,29.94,West,270,4.5,4.9,84,0.00,,,0.00,WUHU216HW,2013-02-13 03:29:00,
2013-02-13 06:34:00,64.3,59.3,29.94,WNW,293,3.6,4.9,84,0.00,,,0.00,WUHU216HW,2013-02-13 03:34:00,
2013-02-13 06:39:00,64.3,59.3,29.95,WNW,293,3.1,4.5,84,0.00,,,0.00,WUHU216HW,2013-02-13 03:39:00,
2013-02-13 06:44:00,64.3,59.3,29.95,WNW,293,3.6,4.5,84,0.00,,,0.00,WUHU216HW,2013-02-13 03:44:00,
2013-02-13 06:49:00,64.3,59.3,29.95,WNW,293,2.5,4.3,84,0.00,,,0.00,WUHU216HW,2013-02-13 03:49:00,
2013-02-13 06:54:00,64.4,59.5,29.95,WNW,293,2.7,4.3,84,0.00,,,0.00,WUHU216HW,2013-02-13 03:54:00,
2013-02-13 06:59:00,64.4,59.1,29.96,NW,315,1.6,3.1,83,0.00,,,0.00,WUHU216HW,2013-02-13 03:59:00,
2013-02-13 07:04:00,64.6,59.3,29.96,NW,315,0.9,2.7,83,0.00,,,0.00,WUHU216HW,2013-02-13 04:04:00,
2013-02-13 07:09:00,65.0,60.0,29.96,NW,315,1.8,2.0,84,0.00,,,0.00,WUHU216HW,2013-02-13 04:09:00,
2013-02-13 07:14:00,65.2,60.2,29.96,NW,315,1.8,2.2,84,0.00,,,0.00,WUHU216HW,2013-02-13 04:14:00,
2013-02-13 07:19:00,65.5,60.6,29.96,NW,315,2.0,3.4,84,0.00,,,0.00,WUHU216HW,2013-02-13 04:19:00,
2013-02-13 07:24:00,65.7,60.4,29.96,NW,315,2.5,3.8,83,0.00,,,0.00,WUHU216HW,2013-02-13 04:24:00,
2013-02-13 07:29:00,66.1,60.4,29.97,NNW,338,1.3,3.8,82,0.00,,,0.00,WUHU216HW,2013-02-13 04:29:00,
2013-02-13 07:34:00,66.4,60.5,29.97,NW,315,4.5,4.5,81,0.00,,,0.00,WUHU216HW,2013-02-13 04:34:00,
2013-02-13 07:39:00,66.8,60.9,29.96,NW,315,2.2,4.7,81,0.00,,,0.00,WUHU216HW,2013-02-13 04:39:00,
2013-02-13 07:44:00,67.0,60.7,29.97,NW,315,3.6,4.7,80,0.00,,,0.00,WUHU216HW,2013-02-13 04:44:00,
2013-02-13 07:49:00,67.3,61.0,29.97,NW,315,3.4,4.0,80,0.00,,,0.00,WUHU216HW,2013-02-13 04:49:00,
2013-02-13 07:54:00,67.9,61.2,29.97,NNW,338,2.5,4.0,79,0.00,,,0.00,WUHU216HW,2013-02-13 04:54:00,
2013-02-13 07:59:00,68.4,60.9,29.97,NW,315,4.0,4.7,77,0.00,,,0.00,WUHU216HW,2013-02-13 04:59:00,
2013-02-13 08:00:00,68.4,60.9,29.97,NW,315,4.3,4.7,77,0.00,,,0.00,WUHU216HW,2013-02-13 05:00:00,
2013-02-13 08:05:00,68.8,60.8,29.97,NW,315,3.4,4.9,76,0.00,,,0.00,WUHU216HW,2013-02-13 05:05:00,
2013-02-13 08:10:00,69.1,60.9,29.98,North,0,3.1,4.9,75,0.00,,,0.00,WUHU216HW,2013-02-13 05:10:00,
2013-02-13 08:15:00,69.5,60.8,29.98,NNE,23,4.9,5.1,74,0.00,,,0.00,WUHU216HW,2013-02-13 05:15:00,
2013-02-13 08:20:00,69.8,61.1,29.98,North,0,3.4,6.9,74,0.00,,,0.00,WUHU216HW,2013-02-13 05:20:00,
2013-02-13 08:25:00,70.0,60.9,29.98,NNW,338,5.1,6.9,73,0.00,,,0.00,WUHU216HW,2013-02-13 05:25:00,
2013-02-13 08:30:00,70.4,61.3,29.99,NNE,23,4.0,6.7,73,0.00,,,0.00,WUHU216HW,2013-02-13 05:30:00,
2013-02-13 08:35:00,70.6,60.3,29.98,NW,315,6.3,6.9,70,0.00,,,0.00,WUHU216HW,2013-02-13 05:35:00,
2013-02-13 08:40:00,70.9,60.7,29.99,North,0,4.7,7.8,70,0.00,,,0.00,WUHU216HW,2013-02-13 05:40:00,
2013-02-13 08:45:00,71.1,60.4,29.99,NNW,338,3.1,7.8,69,0.00,,,0.00,WUHU216HW,2013-02-13 05:45:00,
2013-02-13 08:50:00,71.5,60.0,29.99,NW,315,5.4,6.7,67,0.00,,,0.00,WUHU216HW,2013-02-13 05:50:00,
2013-02-13 08:55:00,71.8,60.7,29.99,North,0,2.2,6.0,68,0.00,,,0.00,WUHU216HW,2013-02-13 05:55:00,
2013-02-13 09:00:00,72.0,60.0,29.99,NNW,338,3.6,6.9,66,0.00,,,0.00,WUHU216HW,2013-02-13 06:00:00,
2013-02-13 09:05:00,72.4,60.3,29.98,North,0,2.7,7.4,66,0.00,,,0.00,WUHU216HW,2013-02-13 06:05:00,
2013-02-13 09:10:00,72.5,60.5,29.98,North,0,4.5,8.1,66,0.00,,,0.00,WUHU216HW,2013-02-13 06:10:00,
2013-02-13 09:15:00,72.7,60.7,29.99,NW,315,4.0,8.1,66,0.00,,,0.00,WUHU216HW,2013-02-13 06:15:00,
2013-02-13 09:20:00,73.1,60.6,29.99,NNW,338,4.0,6.3,65,0.00,,,0.00,WUHU216HW,2013-02-13 06:20:00,
2013-02-13 09:25:00,73.1,60.6,29.99,NNE,23,4.0,6.5,65,0.00,,,0.00,WUHU216HW,2013-02-13 06:25:00,
2013-02-13 09:30:00,73.4,60.5,29.99,NNW,338,3.1,7.6,64,0.00,,,0.00,WUHU216HW,2013-02-13 06:30:00,
2013-02-13 09:35:00,73.6,60.2,29.99,NNW,338,4.0,7.6,63,0.00,,,0.00,WUHU216HW,2013-02-13 06:35:00,
2013-02-13 09:40:00,74.2,59.4,29.99,North,0,1.8,6.3,60,0.00,,,0.00,WUHU216HW,2013-02-13 06:40:00,
2013-02-13 09:45:00,74.3,60.5,29.99,North,0,2.5,5.4,62,0.00,,,0.00,WUHU216HW,2013-02-13 06:45:00,
2013-02-13 09:50:00,74.5,60.2,29.99,North,0,7.6,8.5,61,0.00,,,0.00,WUHU216HW,2013-02-13 06:50:00,
2013-02-13 09:55:00,74.7,60.4,29.99,ENE,68,5.8,8.9,61,0.00,,,0.00,WUHU216HW,2013-02-13 06:55:00,
2013-02-13 10:00:00,74.7,60.9,29.99,North,0,3.6,9.8,62,0.00,,,0.00,WUHU216HW,2013-02-13 07:00:00,
2013-02-13 10:05:00,75.1,61.2,29.99,NNE,23,6.9,9.8,62,0.00,,,0.00,WUHU216HW,2013-02-13 07:05:00,
2013-02-13 10:10:00,74.9,60.6,29.99,North,0,3.4,8.9,61,0.00,,,0.00,WUHU216HW,2013-02-13 07:10:00,
2013-02-13 10:15:00,74.9,61.0,29.99,NE,45,7.2,9.2,62,0.00,,,0.00,WUHU216HW,2013-02-13 07:15:00,
2013-02-13 10:20:00,75.2,60.9,29.99,NNE,23,6.5,9.2,61,0.00,,,0.00,WUHU216HW,2013-02-13 07:20:00,
2013-02-13 10:25:00,75.6,60.9,29.98,North,0,6.7,11.4,60,0.00,,,0.00,WUHU216HW,2013-02-13 07:25:00,
2013-02-13 10:30:00,75.6,60.9,29.98,NNE,23,4.7,11.4,60,0.00,,,0.00,WUHU216HW,2013-02-13 07:30:00,
2013-02-13 10:35:00,75.6,60.3,29.98,North,0,8.9,8.9,59,0.00,,,0.00,WUHU216HW,2013-02-13 07:35:00,
2013-02-13 10:40:00,75.2,59.9,29.98,NNE,23,3.6,10.7,59,0.00,,,0.00,WUHU216HW,2013-02-13 07:40:00,
2013-02-13 10:45:00,75.4,60.1,29.98,NNE,23,3.8,10.7,59,0.00,,,0.00,WUHU216HW,2013-02-13 07:45:00,
2013-02-13 10:50:00,75.8,60.9,29.98,North,0,8.5,9.4,60,0.00,,,0.00,WUHU216HW,2013-02-13 07:50:00,
2013-02-13 10:55:00,76.0,61.1,29.98,ESE,113,7.4,9.8,60,0.00,,,0.00,WUHU216HW,2013-02-13 07:55:00,
2013-02-13 11:00:00,76.0,61.1,29.98,NE,45,7.6,9.8,60,0.00,,,0.00,WUHU216HW,2013-02-13 08:00:00,
2013-02-13 11:05:00,76.1,59.8,29.98,North,0,4.0,13.4,57,0.00,,,0.00,WUHU216HW,2013-02-13 08:05:00,
2013-02-13 11:10:00,76.0,60.1,29.97,NNW,338,7.6,13.4,58,0.00,,,0.00,WUHU216HW,2013-02-13 08:10:00,
2013-02-13 11:15:00,76.5,60.1,29.97,North,0,4.7,9.4,57,0.00,,,0.00,WUHU216HW,2013-02-13 08:15:00,
2013-02-13 11:20:00,76.7,60.8,29.97,ESE,113,2.5,9.4,58,0.00,,,0.00,WUHU216HW,2013-02-13 08:20:00,
2013-02-13 11:25:00,76.7,60.3,29.97,North,0,9.6,10.5,57,0.00,,,0.00,WUHU216HW,2013-02-13 08:25:00,
2013-02-13 11:30:00,76.9,60.9,29.97,North,0,9.8,10.5,58,0.00,,,0.00,WUHU216HW,2013-02-13 08:30:00,
2013-02-13 11:35:00,76.7,60.8,29.96,NNE,23,3.4,12.5,58,0.00,,,0.00,WUHU216HW,2013-02-13 08:35:00,
2013-02-13 11:40:00,76.9,61.5,29.96,North,0,4.7,12.5,59,0.00,,,0.00,WUHU216HW,2013-02-13 08:40:00,
2013-02-13 11:45:00,77.0,61.6,29.96,ENE,68,1.6,10.5,59,0.00,,,0.00,WUHU216HW,2013-02-13 08:45:00,
2013-02-13 11:50:00,77.2,60.8,29.96,North,0,7.4,10.1,57,0.00,,,0.00,WUHU216HW,2013-02-13 08:50:00,
2013-02-13 11:55:00,77.4,60.9,29.96,SSE,158,6.3,14.1,57,0.00,,,0.00,WUHU216HW,2013-02-13 08:55:00,
2013-02-13 12:00:00,77.4,61.5,29.96,North,0,10.3,14.1,58,0.00,,,0.00,WUHU216HW,2013-02-13 09:00:00,
2013-02-13 12:05:00,77.4,61.9,29.96,NNE,23,11.4,12.3,59,0.00,,,0.00,WUHU216HW,2013-02-13 09:05:00,
2013-02-13 12:10:00,77.4,61.9,29.96,NNE,23,12.3,12.5,59,0.00,,,0.00,WUHU216HW,2013-02-13 09:10:00,
2013-02-13 12:15:00,77.6,61.7,29.95,NE,45,13.2,13.2,58,0.00,,,0.00,WUHU216HW,2013-02-13 09:15:00,
2013-02-13 12:20:00,77.6,62.1,29.95,NNE,23,11.4,13.2,59,0.00,,,0.00,WUHU216HW,2013-02-13 09:20:00,
2013-02-13 12:25:00,77.8,62.3,29.95,North,0,10.1,16.3,59,0.00,,,0.00,WUHU216HW,2013-02-13 09:25:00,
2013-02-13 12:30:00,77.8,62.3,29.95,NNE,23,11.9,16.3,59,0.00,,,0.00,WUHU216HW,2013-02-13 09:30:00,
2013-02-13 12:35:00,78.1,63.2,29.95,North,0,7.6,11.9,60,0.00,,,0.00,WUHU216HW,2013-02-13 09:35:00,
2013-02-13 12:40:00,78.1,63.2,29.95,North,0,4.7,12.5,60,0.00,,,0.00,WUHU216HW,2013-02-13 09:40:00,
2013-02-13 12:45:00,78.1,62.6,29.94,ENE,68,10.7,13.2,59,0.00,,,0.00,WUHU216HW,2013-02-13 09:45:00,
2013-02-13 12:50:00,78.1,63.2,29.94,North,0,12.3,13.2,60,0.00,,,0.00,WUHU216HW,2013-02-13 09:50:00,
2013-02-13 12:55:00,78.1,63.2,29.94,North,0,15.0,16.6,60,0.00,,,0.00,WUHU216HW,2013-02-13 09:55:00,
2013-02-13 13:00:00,78.1,63.6,29.94,ENE,68,11.2,16.6,61,0.00,,,0.00,WUHU216HW,2013-02-13 10:00:00,
2013-02-13 13:05:00,77.9,63.5,29.94,North,0,9.2,15.0,61,0.00,,,0.00,WUHU216HW,2013-02-13 10:05:00,
2013-02-13 13:10:00,77.9,63.9,29.94,NNW,338,4.9,14.1,62,0.00,,,0.00,WUHU216HW,2013-02-13 10:10:00,
2013-02-13 13:15:00,77.8,64.2,29.94,NNE,23,3.1,13.4,63,0.00,,,0.00,WUHU216HW,2013-02-13 10:15:00,
2013-02-13 13:20:00,77.9,64.4,29.94,NNW,338,11.6,15.7,63,0.00,,,0.00,WUHU216HW,2013-02-13 10:20:00,
2013-02-13 13:25:00,77.6,64.5,29.94,NNE,23,11.6,19.2,64,0.00,,,0.00,WUHU216HW,2013-02-13 10:25:00,
2013-02-13 13:30:00,77.4,65.2,29.93,North,0,15.4,19.2,66,0.00,,,0.00,WUHU216HW,2013-02-13 10:30:00,
2013-02-13 14:00:00,76.9,65.5,29.93,North,0,10.3,10.3,68,0.00,,,0.00,WUHU216HW,2013-02-13 11:00:00,
2013-02-13 14:05:00,76.9,65.5,29.93,North,0,10.3,10.3,68,0.00,,,0.00,WUHU216HW,2013-02-13 11:05:00,
2013-02-13 15:00:00,76.1,65.3,29.93,NNE,23,7.2,7.2,69,0.00,,,0.00,WUHU216HW,2013-02-13 12:00:00,
2013-02-13 15:05:00,75.6,65.2,29.93,NNE,23,10.1,17.9,70,0.00,,,0.00,WUHU216HW,2013-02-13 12:05:00,
2013-02-13 15:10:00,75.6,65.2,29.93,NE,45,10.1,18.1,70,0.00,,,0.00,WUHU216HW,2013-02-13 12:10:00,
2013-02-13 15:15:00,75.6,65.2,29.93,NNE,23,7.8,18.1,70,0.00,,,0.00,WUHU216HW,2013-02-13 12:15:00,
2013-02-13 15:20:00,75.6,65.2,29.93,NE,45,9.8,17.9,70,0.00,,,0.00,WUHU216HW,2013-02-13 12:20:00,
2013-02-13 15:25:00,75.8,65.7,29.93,NNW,338,10.5,17.9,71,0.00,,,0.00,WUHU216HW,2013-02-13 12:25:00,
2013-02-13 15:30:00,75.6,65.5,29.93,NNE,23,14.3,18.6,71,0.00,,,0.00,WUHU216HW,2013-02-13 12:30:00,
2013-02-13 15:35:00,75.4,65.8,29.93,North,0,11.0,18.6,72,0.00,,,0.00,WUHU216HW,2013-02-13 12:35:00,
2013-02-13 15:40:00,75.2,65.2,29.94,NNE,23,5.8,17.9,71,0.00,,,0.00,WUHU216HW,2013-02-13 12:40:00,
2013-02-13 15:45:00,75.2,65.2,29.94,NNE,23,10.3,17.9,71,0.00,,,0.00,WUHU216HW,2013-02-13 12:45:00,
2013-02-13 15:50:00,74.9,64.9,29.94,NNE,23,9.4,15.9,71,0.00,,,0.00,WUHU216HW,2013-02-13 12:50:00,
2013-02-13 15:55:00,75.1,63.4,29.94,North,0,8.5,18.1,67,0.00,,,0.00,WUHU216HW,2013-02-13 12:55:00,
2013-02-13 16:00:00,74.7,63.5,29.94,NW,315,14.3,18.1,68,0.00,,,0.00,WUHU216HW,2013-02-13 13:00:00,
2013-02-13 16:05:00,74.7,63.5,29.94,North,0,13.0,15.7,68,0.00,,,0.00,WUHU216HW,2013-02-13 13:05:00,
2013-02-13 16:10:00,74.5,63.7,29.94,North,0,11.6,15.7,69,0.00,,,0.00,WUHU216HW,2013-02-13 13:10:00,
2013-02-13 16:15:00,74.3,63.1,29.94,NE,45,7.6,14.3,68,0.00,,,0.00,WUHU216HW,2013-02-13 13:15:00,
2013-02-13 16:20:00,74.3,63.1,29.95,NNW,338,9.8,15.0,68,0.00,,,0.00,WUHU216HW,2013-02-13 13:20:00,
2013-02-13 16:25:00,74.0,62.8,29.95,North,0,13.6,15.9,68,0.00,,,0.00,WUHU216HW,2013-02-13 13:25:00,
2013-02-13 16:30:00,73.8,63.1,29.95,NNW,338,8.5,15.9,69,0.00,,,0.00,WUHU216HW,2013-02-13 13:30:00,
2013-02-13 16:35:00,73.8,63.1,29.95,North,0,9.8,13.0,69,0.00,,,0.00,WUHU216HW,2013-02-13 13:35:00,
2013-02-13 16:40:00,73.6,62.5,29.95,NNE,23,11.0,13.0,68,0.00,,,0.00,WUHU216HW,2013-02-13 13:40:00,
2013-02-13 16:45:00,73.4,62.7,29.95,NNW,338,7.6,15.7,69,0.00,,,0.00,WUHU216HW,2013-02-13 13:45:00,
2013-02-13 16:50:00,73.3,62.6,29.95,NNW,338,8.1,15.7,69,0.00,,,0.00,WUHU216HW,2013-02-13 13:50:00,
2013-02-13 16:55:00,73.1,62.8,29.95,North,0,4.7,14.3,70,0.00,,,0.00,WUHU216HW,2013-02-13 13:55:00,
2013-02-13 17:00:00,72.7,62.5,29.95,North,0,5.1,15.7,70,0.00,,,0.00,WUHU216HW,2013-02-13 14:00:00,
2013-02-13 17:05:00,72.7,62.0,29.95,NNW,338,8.5,15.7,69,0.00,,,0.00,WUHU216HW,2013-02-13 14:05:00,
2013-02-13 17:10:00,72.7,61.6,29.96,NNW,338,7.8,13.9,68,0.00,,,0.00,WUHU216HW,2013-02-13 14:10:00,
2013-02-13 17:15:00,72.5,61.4,29.96,NW,315,6.3,11.0,68,0.00,,,0.00,WUHU216HW,2013-02-13 14:15:00,
2013-02-13 17:20:00,72.4,60.8,29.96,NE,45,7.8,13.0,67,0.00,,,0.00,WUHU216HW,2013-02-13 14:20:00,
2013-02-13 17:25:00,72.2,60.2,29.96,NNW,338,10.1,13.9,66,0.00,,,0.00,WUHU216HW,2013-02-13 14:25:00,
2013-02-13 17:30:00,71.8,59.9,29.96,NNW,338,12.8,13.9,66,0.00,,,0.00,WUHU216HW,2013-02-13 14:30:00,
2013-02-13 17:35:00,71.8,59.9,29.96,North,0,9.6,13.4,66,0.00,,,0.00,WUHU216HW,2013-02-13 14:35:00,
2013-02-13 17:40:00,71.6,59.7,29.96,NW,315,6.5,11.9,66,0.00,,,0.00,WUHU216HW,2013-02-13 14:40:00,
2013-02-13 17:45:00,71.5,59.5,29.96,North,0,9.8,12.1,66,0.00,,,0.00,WUHU216HW,2013-02-13 14:45:00,
2013-02-13 17:50:00,71.3,58.9,29.97,NW,315,10.7,19.5,65,0.00,,,0.00,WUHU216HW,2013-02-13 14:50:00,
2013-02-13 17:55:00,71.1,58.7,29.97,NW,315,9.2,19.5,65,0.00,,,0.00,WUHU216HW,2013-02-13 14:55:00,
2013-02-13 18:00:00,70.9,58.5,29.97,NNW,338,10.5,16.8,65,0.00,,,0.00,WUHU216HW,2013-02-13 15:00:00,
2013-02-13 18:05:00,70.7,58.3,29.97,NNW,338,6.5,14.8,65,0.00,,,0.00,WUHU216HW,2013-02-13 15:05:00,
2013-02-13 18:10:00,70.6,58.2,29.97,North,0,9.4,16.3,65,0.00,,,0.00,WUHU216HW,2013-02-13 15:10:00,
2013-02-13 18:15:00,70.6,57.8,29.98,North,0,11.9,16.3,64,0.00,,,0.00,WUHU216HW,2013-02-13 15:15:00,
2013-02-13 18:20:00,70.4,57.6,29.98,NNW,338,6.5,14.8,64,0.00,,,0.00,WUHU216HW,2013-02-13 15:20:00,
2013-02-13 18:25:00,70.2,57.9,29.98,NNW,338,9.4,13.9,65,0.00,,,0.00,WUHU216HW,2013-02-13 15:25:00,
2013-02-13 18:30:00,70.2,57.4,29.98,North,0,9.6,15.7,64,0.00,,,0.00,WUHU216HW,2013-02-13 15:30:00,
2013-02-13 18:35:00,70.0,57.2,29.98,NNW,338,8.7,15.7,64,0.00,,,0.00,WUHU216HW,2013-02-13 15:35:00,
2013-02-13 18:40:00,70.0,57.2,29.98,NNW,338,11.4,15.0,64,0.00,,,0.00,WUHU216HW,2013-02-13 15:40:00,
2013-02-13 18:45:00,69.8,57.1,29.98,WNW,293,10.5,15.0,64,0.00,,,0.00,WUHU216HW,2013-02-13 15:45:00,
2013-02-13 18:50:00,69.7,56.5,29.98,NW,315,11.2,14.8,63,0.00,,,0.00,WUHU216HW,2013-02-13 15:50:00,
2013-02-13 18:55:00,69.7,56.9,29.99,NW,315,6.9,14.3,64,0.00,,,0.00,WUHU216HW,2013-02-13 15:55:00,
2013-02-13 19:00:00,69.5,56.4,29.98,NNW,338,7.8,14.3,63,0.00,,,0.00,WUHU216HW,2013-02-13 16:00:00,
2013-02-13 19:05:00,69.3,56.2,29.99,WNW,293,12.3,12.3,63,0.00,,,0.00,WUHU216HW,2013-02-13 16:05:00,
2013-02-13 19:10:00,69.3,56.6,29.99,NNW,338,10.5,15.0,64,0.00,,,0.00,WUHU216HW,2013-02-13 16:10:00,
2013-02-13 19:15:00,69.1,56.8,29.99,NNW,338,9.8,15.0,65,0.00,,,0.00,WUHU216HW,2013-02-13 16:15:00,
2013-02-13 19:20:00,69.1,56.4,29.99,NW,315,7.8,12.3,64,0.00,,,0.00,WUHU216HW,2013-02-13 16:20:00,
2013-02-13 19:25:00,68.8,55.6,29.99,NW,315,9.4,14.8,63,0.00,,,0.00,WUHU216HW,2013-02-13 16:25:00,
2013-02-13 19:30:00,68.8,55.6,29.99,West,270,8.9,14.8,63,0.00,,,0.00,WUHU216HW,2013-02-13 16:30:00,
2013-02-13 19:35:00,68.8,55.6,29.99,North,0,10.1,14.3,63,0.00,,,0.00,WUHU216HW,2013-02-13 16:35:00,
2013-02-13 19:40:00,68.6,55.4,29.99,NNW,338,12.3,14.3,63,0.00,,,0.00,WUHU216HW,2013-02-13 16:40:00,
2013-02-13 19:45:00,68.4,54.9,29.99,WNW,293,14.3,14.3,62,0.00,,,0.00,WUHU216HW,2013-02-13 16:45:00,
2013-02-13 19:50:00,68.4,55.3,29.99,NNW,338,11.6,14.3,63,0.00,,,0.00,WUHU216HW,2013-02-13 16:50:00,
2013-02-13 19:55:00,68.2,55.5,29.99,NW,315,11.4,14.3,64,0.00,,,0.00,WUHU216HW,2013-02-13 16:55:00,
2013-02-13 20:00:00,68.0,55.4,29.99,NNE,23,7.6,14.3,64,0.00,,,0.00,WUHU216HW,2013-02-13 17:00:00,
2013-02-13 20:05:00,67.9,55.6,29.99,NW,315,11.6,14.3,65,0.00,,,0.00,WUHU216HW,2013-02-13 17:05:00,
2013-02-13 20:10:00,67.9,55.2,29.99,NW,315,9.2,17.9,64,0.00,,,0.00,WUHU216HW,2013-02-13 17:10:00,
2013-02-13 20:15:00,67.7,55.4,30.00,NNW,338,13.6,17.9,65,0.00,,,0.00,WUHU216HW,2013-02-13 17:15:00,
2013-02-13 20:20:00,67.7,55.0,30.00,NW,315,12.3,17.9,64,0.00,,,0.00,WUHU216HW,2013-02-13 17:20:00,
2013-02-13 20:25:00,67.7,55.0,30.00,WNW,293,9.8,14.8,64,0.00,,,0.00,WUHU216HW,2013-02-13 17:25:00,
2013-02-13 20:30:00,67.5,55.3,29.99,WNW,293,12.5,14.8,65,0.00,,,0.00,WUHU216HW,2013-02-13 17:30:00,
2013-02-13 20:35:00,67.3,55.5,29.99,NNW,338,12.8,15.4,66,0.00,,,0.00,WUHU216HW,2013-02-13 17:35:00,
2013-02-13 20:40:00,67.1,54.9,30.00,West,270,13.4,15.9,65,0.00,,,0.00,WUHU216HW,2013-02-13 17:40:00,
2013-02-13 20:45:00,67.1,54.9,30.00,WNW,293,11.6,15.9,65,0.00,,,0.00,WUHU216HW,2013-02-13 17:45:00,
2013-02-13 20:50:00,67.1,54.9,30.00,NW,315,14.3,15.9,65,0.00,,,0.00,WUHU216HW,2013-02-13 17:50:00,
2013-02-13 20:55:00,67.0,55.2,29.99,NNW,338,7.6,15.9,66,0.00,,,0.00,WUHU216HW,2013-02-13 17:55:00,
2013-02-13 21:00:00,66.8,55.0,29.99,NNW,338,12.5,14.3,66,0.00,,,0.00,WUHU216HW,2013-02-13 18:00:00,
2013-02-13 21:05:00,66.6,54.8,30.00,NW,315,15.7,17.4,66,0.00,,,0.00,WUHU216HW,2013-02-13 18:05:00,
2013-02-13 21:10:00,66.6,55.3,30.00,WNW,293,17.9,17.9,67,0.00,,,0.00,WUHU216HW,2013-02-13 18:10:00,
2013-02-13 21:15:00,66.4,55.5,30.00,NW,315,11.4,17.9,68,0.00,,,0.00,WUHU216HW,2013-02-13 18:15:00,
2013-02-13 21:20:00,66.2,55.4,30.00,WNW,293,10.3,17.9,68,0.00,,,0.00,WUHU216HW,2013-02-13 18:20:00,
2013-02-13 21:25:00,66.1,54.7,30.00,NW,315,17.0,17.0,67,0.00,,,0.00,WUHU216HW,2013-02-13 18:25:00,
2013-02-13 21:30:00,66.1,54.7,30.00,NW,315,11.0,17.0,67,0.00,,,0.00,WUHU216HW,2013-02-13 18:30:00,
2013-02-13 21:35:00,66.1,54.7,30.01,NNW,338,10.5,17.0,67,0.00,,,0.00,WUHU216HW,2013-02-13 18:35:00,
2013-02-13 21:40:00,65.9,55.0,30.01,NW,315,9.2,14.1,68,0.00,,,0.00,WUHU216HW,2013-02-13 18:40:00,
2013-02-13 21:45:00,65.9,55.0,30.01,WNW,293,11.6,13.0,68,0.00,,,0.00,WUHU216HW,2013-02-13 18:45:00,
2013-02-13 21:50:00,65.7,54.5,30.00,NW,315,10.1,13.0,67,0.00,,,0.00,WUHU216HW,2013-02-13 18:50:00,
2013-02-13 21:55:00,65.7,54.0,30.00,West,270,8.9,15.9,66,0.00,,,0.00,WUHU216HW,2013-02-13 18:55:00,
2013-02-13 22:00:00,65.7,53.6,30.00,NW,315,13.2,15.9,65,0.00,,,0.00,WUHU216HW,2013-02-13 19:00:00,
2013-02-13 22:05:00,65.7,53.6,30.00,NW,315,9.2,15.7,65,0.00,,,0.00,WUHU216HW,2013-02-13 19:05:00,
2013-02-13 22:10:00,65.5,53.8,30.00,WNW,293,10.5,14.1,66,0.00,,,0.00,WUHU216HW,2013-02-13 19:10:00,
2013-02-13 22:15:00,65.5,53.4,30.00,NW,315,14.3,14.3,65,0.00,,,0.00,WUHU216HW,2013-02-13 19:15:00,
2013-02-13 22:20:00,65.5,53.4,30.00,NNW,338,12.5,14.8,65,0.00,,,0.00,WUHU216HW,2013-02-13 19:20:00,
2013-02-13 22:25:00,65.5,53.0,30.00,NW,315,10.5,17.9,64,0.00,,,0.00,WUHU216HW,2013-02-13 19:25:00,
2013-02-13 22:30:00,65.3,53.3,30.00,NNW,338,9.2,17.9,65,0.00,,,0.00,WUHU216HW,2013-02-13 19:30:00,
2013-02-13 22:35:00,65.2,53.1,30.00,NW,315,10.1,16.1,65,0.00,,,0.00,WUHU216HW,2013-02-13 19:35:00,
2013-02-13 22:40:00,65.2,53.5,30.00,NNW,338,13.4,16.1,66,0.00,,,0.00,WUHU216HW,2013-02-13 19:40:00,
2013-02-13 22:45:00,65.2,53.5,30.00,NW,315,13.6,17.9,66,0.00,,,0.00,WUHU216HW,2013-02-13 19:45:00,
2013-02-13 22:50:00,65.0,53.3,30.00,WNW,293,15.4,17.9,66,0.00,,,0.00,WUHU216HW,2013-02-13 19:50:00,
2013-02-13 22:55:00,64.8,53.2,30.00,NNW,338,10.1,16.1,66,0.00,,,0.00,WUHU216HW,2013-02-13 19:55:00,
2013-02-13 23:00:00,64.8,53.6,30.00,NW,315,12.1,15.7,67,0.00,,,0.00,WUHU216HW,2013-02-13 20:00:00,
2013-02-13 23:05:00,64.6,53.4,30.00,NW,315,11.2,15.2,67,0.00,,,0.00,WUHU216HW,2013-02-13 20:05:00,
2013-02-13 23:10:00,64.6,53.4,30.00,NW,315,11.9,17.2,67,0.00,,,0.00,WUHU216HW,2013-02-13 20:10:00,
2013-02-13 23:15:00,64.4,52.8,29.99,NW,315,13.0,17.9,66,0.00,,,0.00,WUHU216HW,2013-02-13 20:15:00,
2013-02-13 23:20:00,64.4,52.8,29.99,NW,315,13.9,17.9,66,0.00,,,0.00,WUHU216HW,2013-02-13 20:20:00,
2013-02-13 23:25:00,64.4,52.8,29.99,NW,315,12.8,16.6,66,0.00,,,0.00,WUHU216HW,2013-02-13 20:25:00,
2013-02-13 23:30:00,64.4,52.8,30.00,NW,315,12.1,17.2,66,0.00,,,0.00,WUHU216HW,2013-02-13 20:30:00,
2013-02-13 23:35:00,64.3,52.7,30.00,NNW,338,14.5,17.2,66,0.00,,,0.00,WUHU216HW,2013-02-13 20:35:00,
2013-02-13 23:40:00,64.3,52.7,30.00,WNW,293,13.6,17.4,66,0.00,,,0.00,WUHU216HW,2013-02-13 20:40:00,
2013-02-13 23:45:00,64.1,52.5,30.00,NW,315,14.1,17.4,66,0.00,,,0.00,WUHU216HW,2013-02-13 20:45:00,
2013-02-13 23:50:00,64.1,52.0,30.00,NW,315,17.0,17.0,65,0.00,,,0.00,WUHU216HW,2013-02-13 20:50:00,
2013-02-13 23:55:00,64.1,52.5,30.00,West,270,8.1,17.0,66,0.00,,,0.00,WUHU216HW,2013-02-13 20:55:00,